Regional Weather Roundup
Issued by NWS Kansas City/Pleasant Hill, MO

Home | Current Version | Previous Version | Graphics & Text | Print | Product List | Glossary Off
Versions: 1 2 3 4 5 6 7 8 9 10 11 12 13 14 15 16 17 18 19 20 21 22 23 24 25 26 27

000
ASUS43 KEAX 210010
RWREAX

WEATHER ROUNDUP FOR EASTERN KANSAS AND NORTHWEST MISSOURI
NATIONAL WEATHER SERVICE KANSAS CITY/PLEASANT HILL MO
600 PM CST TUE FEB 20 2018

KSZ040-057-103>105-MOZ028-029-037-043-210100-
...KANSAS CITY METROPOLITAN AREA...

CITY           SKY/WX    TMP DP  RH WIND       PRES   REMARKS
K.C. INTL      CLOUDY    22  17  81 N13       30.22R WCI  10
6HR MIN TEMP:  22; 6HR MAX TEMP:  26;

K.C. DOWNTOWN  CLOUDY    25  18  74 NW14      30.23R WCI  13
6HR MIN TEMP:  25; 6HR MAX TEMP:  29; 6HR PCP:  0.05;

LEES SUMMIT    CLOUDY    24  20  84 N14       30.20R WCI  12
6HR MIN TEMP:  24; 6HR MAX TEMP:  30; 6HR PCP:  0.13;

OLATHE - IXD   FAIR      22  18  85 N20       30.21S WCI   7
6HR MIN TEMP:  22; 6HR MAX TEMP:  27; 6HR PCP:  0.03;

OLATHE - OJC   CLOUDY    22  18  85 N14G22    30.20R WCI   9
6HR MIN TEMP:  22; 6HR MAX TEMP:  27; 6HR PCP:  0.08;

LAWRENCE       MOCLDY    24  18  77 N13       30.24R WCI  12

$$

MOZ001>008-011>017-020>025-030>033-038>040-044>046-053-054-210100-
...NORTHERN AND CENTRAL MISSOURI...

CITY           SKY/WX    TMP DP  RH WIND       PRES   REMARKS
ST. JOSEPH     MOCLDY    22  17  81 N15       30.26R WCI   9
6HR MIN TEMP:  22; 6HR MAX TEMP:  25;

MOSBY          CLOUDY    25  19  80 N8        30.23R WCI  16
WARRENSBURG    CLOUDY    28  27  93 NW7       30.18R WCI  21
WHITEMAN AFB   FRZ RAIN  27  24  86 CALM      30.14R
6HR MIN TEMP:  27; 6HR MAX TEMP:  33; 6HR PCP:  0.37;

CLINTON        CLOUDY    28  27  93 CALM      30.19R
SEDALIA        FRZ RAIN  30  28  92 NW17      30.18R WCI  18
6HR MIN TEMP:  30; 6HR MAX TEMP:  35; 6HR PCP:  0.71;

WARSAW         NOT AVBL
CHILLICOTHE      N/A     25  21  85 N8        30.21R WCI  16
6HR MIN TEMP:  25; 6HR MAX TEMP:  32; 6HR PCP:  0.07;

KIRKSVILLE     CLOUDY    27  25  92 N12       30.16R WCI  17
6HR MIN TEMP:  27; 6HR MAX TEMP:  34; 6HR PCP:  0.18;


$$

MOZ041-047>049-056>058-063>065-088>090-097-210100-
...EASTERN AND SOUTHERN MISSOURI...

CITY           SKY/WX    TMP DP  RH WIND       PRES   REMARKS
ST. LOUIS INTL RAIN      42  41  96 NW16G24   30.07R WCI  34
6HR MIN TEMP:  43; 6HR MAX TEMP:  66; 6HR PCP:  0.17;

SPIRIT OF STL  RAIN      43  42  97 NW10      30.07R FOG
COLUMBIA       RAIN      34  33  96 NW12      30.12R WCI  25
JEFFERSON CITY RAIN      35  32  88 NW13G21   30.13R WCI  26
ROLLA          HVY RAIN  36  36 100 N12       30.06R FOG     WCI  28
OSAGE BEACH    LGT SNOW  34  33  96 NW7       30.14R FOG     WCI  28
SPRINGFIELD    RAIN      35  34  96 N18G24    30.08R FOG     WCI  24
BRANSON        RAIN      41  41 100 NW15      30.04R FOG     WCI  33
JOPLIN         FRZ RAIN  32  32 100 N13       30.10F FOG     WCI  22
WEST PLAINS    HVY RAIN  57  56  96 NW12      29.99R FOG

$$

IAZ060-094-KSZ022-034>040-054-083-096-NEZ052-066-093-210100-
...KANSAS...SOUTHEAST NEBRASKA AND IOWA...

CITY           SKY/WX    TMP DP  RH WIND       PRES   REMARKS
TOPEKA         CLOUDY    24  19  81 N13       30.24R WCI  12
6HR MIN TEMP:  24; 6HR MAX TEMP:  26;

MANHATTAN      CLOUDY    25  13  60 N9G17     30.26R WCI  15
EMPORIA        CLOUDY    23  18  81 N13G21    30.20R WCI  11
CHANUTE        CLOUDY    26  22  84 N16G22    30.20R WCI  14
WICHITA        MOCLDY    25  19  78 N18G24    30.20R WCI  11
OMAHA          MOCLDY    17  10  74 NW17      30.30R WCI   1
LINCOLN        FAIR      19   9  65 N17       30.31R WCI   4
FALLS CITY     MOCLDY    20  12  71 NW16G24   30.26R WCI   6
LAMONI         CLOUDY    21  16  81 NW15      30.20R WCI   8
DES MOINES     FLURRIES  20  14  77 NW17      30.23R WCI   5

$$





USA.gov is the U.S. government's official web portal to all federal, state and local government web resources and services.